Вернуться в каталог

STARLINK-5703

АктивенСвязьVLEO
NORAD 55593·PAYLOAD·🇺🇸 United States

Запущен Feb 12, 2023 с Cape Canaveral Space Force Station

Loading…

Ближайшие Пролёты (ближайшие 24 часа)

TLE

СвежийSource: CelesTrak SupGP

Эпоха: Sep 15, 2026, 01:38 UTC

1 55593C 23020AA  26258.06854167 -.00032438  00000+0 -11749-2 0  2587
2 55593  43.0021  15.3313 0001312 269.6307 319.2829 15.27593487    11

Отслеживайте STARLINK-5703 в реальном времени с AllMySat

Download on the App Store